STARLINK-35109

Last updated on Sun Oct 19 2025 00:02:05 GMT+0000 (Coordinated Universal Time)

1 65642U 25210W 25291.30773770 .00082238 00000+0 20415-2 0 9992 2 65642 53.1593 250.4208 0001642 109.0711 251.0472 15.39654929 5902
UTC large
Height (km)
Speed (km/s)
/
Latitude / Longitude
Inclination (degrees)
Orbital Period (minutes)
Azimuth
Elevation
Range (km)
Doppler Factor

Next 0 passes for location: London (51.5072 / 0.1276)

Sorry there are no passes over London.
STARLINK-35109